Location: ???????
(55.4362°N, 38.1183°E)
Time: 09:29:32
(UTC+00:00)

Oscar 11 - Pass Details

Date: 04 December 2021
Orbit: 611 x 625 km, 97.6° (Epoch: 25 January)

Event Time Altitude Azimuth Distance (km) Brightness Sun altitude
Rises 01:39:58 0° 26° (NNE) 2,923 10.9 -31.9°
Reaches altitude 10° 01:42:59 10° 48° (NE) 2,008 10.3 -31.5°
Maximum altitude 01:45:40 16° 86° (E) 1,646 10.0 -31.1°
Drops below altitude 10° 01:48:20 10° 125° (SE) 1,993 10.2 -30.7°
Sets 01:51:18 0° 147° (SSE) 2,890 10.8 -30.3°
